English version Home page |
Updated on September 28, 2019 |
|
軌道要素Epoch 2014 Sept. 20.0 TT = JDT 2456920.5 T 2014 Oct. 7.14813 TT MPCLINUX q 1.1642934 (2000.0) P Q n 0.19625527 Peri. 35.24935 +0.85294009 -0.52193652 a 2.9326157 Node 356.18168 +0.44397860 +0.73409418 e 0.6029847 Incl. 7.49562 +0.27454726 +0.43438232 P 5.02 From 165 observations 2014 Oct. 18-2019 July 28, mean residual 0".6.
|
光度変化m1 = 19.0 + 5 logΔ + 10.0 log r(t - 30)
|
軌道要素はM.P.E.C. 2019-O84に掲載されたものです。
|